Tracy, MN

7:21 AM CDT on October 17, 2017 (GMT -0500)
Tracy

Weather History for KTKC - November, 2013

Change the Weather History Date:

Tuesday, November 19, 2013

  Actual Average (KMML) Record (KMML)
Temperature  
Mean Temperature 42 °F -  
Max Temperature 55 °F 36 °F 63 °F (1989)
Min Temperature 29 °F 21 °F -2 °F (1986)
Degree Days  
Heating Degree Days 23    
Moisture  
Dew Point 29 °F    
Average Humidity 60    
Maximum Humidity 82    
Minimum Humidity 39    
Precipitation  
Precipitation 0.00 in - - ()
Sea Level Pressure  
Sea Level Pressure 29.91 in    
Wind  
Wind Speed 15 mph (South)    
Max Wind Speed 24 mph    
Max Gust Speed 38 mph    
Visibility 10 miles    
Events      
Averages and records for this station are not official NWS values.
T = Trace of Precipitation, MM = Missing Value Source: NWS Daily Summary

Daily Weather History Graph

Daily Weather History Graph

Search for Another Location

Airport or City:

Trip Planner

Search our weather history database for the weather conditions in past years. The results will help you decide how hot, cold, wet, or windy it might be!

Date:

Astronomy

Nov. 19, 2013 Rise Set
Actual Time 7:23 AM CST 4:51 PM CST
Civil Twilight 6:51 AM CST 5:23 PM CST
Nautical Twilight 6:16 AM CST 5:58 PM CST
Astronomical Twilight 5:42 AM CST 6:33 PM CST
Moon 6:43 PM CST (11/19) 9:04 AM CST (11/19)
Length of Visible Light 10h 31m
Length of Day
9h 28m
Waning Gibbous, 96% of the Moon is Illuminated
Nov 19
Waning Gibbous
Nov 25
Last Quarter
Dec 2
New
Dec 9
First Quarter
Dec 17
Full

Hourly Weather History & Observations

Time (CST) Temp. Windchill Dew Point Humidity Pressure Visibility Wind Dir Wind Speed Gust Speed Precip Events Conditions
12:18 AM 30.2 °F 21.3 °F 23.7 °F 77% 30.17 in 10.0 mi South 10.4 mph - N/A   Clear
12:38 AM 30.6 °F 20.2 °F 23.9 °F 76% 30.16 in 10.0 mi South 13.8 mph - N/A   Clear
12:57 AM 30.2 °F 20.8 °F 23.9 °F 77% 30.16 in 10.0 mi South 11.5 mph - N/A   Clear
1:18 AM 30.0 °F 21.1 °F 23.9 °F 78% 30.15 in 10.0 mi South 10.4 mph - N/A   Clear
1:38 AM 30.0 °F 21.1 °F 24.1 °F 79% 30.14 in 10.0 mi SSE 10.4 mph - N/A   Clear
1:58 AM 29.8 °F 20.3 °F 24.3 °F 80% 30.13 in 10.0 mi SSE 11.5 mph - N/A   Clear
2:17 AM 30.2 °F 21.3 °F 24.6 °F 80% 30.13 in 10.0 mi South 10.4 mph - N/A   Clear
2:38 AM 30.7 °F 22.0 °F 24.8 °F 79% 30.12 in 10.0 mi SSE 10.4 mph - N/A   Clear
2:58 AM 30.2 °F 23.4 °F 24.8 °F 80% 30.11 in 10.0 mi SSE 6.9 mph - N/A   Clear
3:18 AM 30.6 °F 22.4 °F 25.5 °F 82% 30.09 in 10.0 mi SSE 9.2 mph - N/A   Clear
3:38 AM 31.6 °F 22.6 °F 26.1 °F 80% 30.09 in 10.0 mi SSE 11.5 mph - N/A   Clear
3:57 AM 32.0 °F 22.5 °F 26.6 °F 80% 30.08 in 10.0 mi SSE 12.7 mph - N/A   Clear
4:18 AM 32.2 °F 22.7 °F 27.1 °F 82% 30.07 in 10.0 mi SSE 12.7 mph - N/A   Clear
4:38 AM 32.2 °F 21.8 °F 27.1 °F 82% 30.06 in 10.0 mi SSE 15.0 mph 20.7 mph N/A   Clear
4:58 AM 32.7 °F 23.0 °F 27.7 °F 82% 30.05 in 10.0 mi SSE 13.8 mph 19.6 mph N/A   Clear
5:18 AM 33.8 °F 22.8 °F 28.4 °F 81% 30.04 in 10.0 mi South 18.4 mph 25.3 mph N/A   Clear
5:37 AM 34.2 °F 22.6 °F 28.9 °F 81% 30.02 in 10.0 mi South 20.7 mph 27.6 mph N/A   Clear
5:58 AM 34.2 °F 23.3 °F 28.9 °F 81% 30.02 in 10.0 mi South 18.4 mph 24.2 mph N/A   Clear
6:18 AM 34.2 °F 22.6 °F 28.8 °F 81% 30.01 in 10.0 mi South 20.7 mph 26.5 mph N/A   Clear
6:38 AM 34.2 °F 23.3 °F 28.6 °F 80% 30.01 in 10.0 mi South 18.4 mph 27.6 mph N/A   Clear
6:58 AM 33.8 °F 22.5 °F 28.4 °F 81% 30.00 in 10.0 mi South 19.6 mph 25.3 mph N/A   Clear
7:18 AM 33.4 °F 23.1 °F 28.2 °F 81% 30.00 in 10.0 mi South 16.1 mph 25.3 mph N/A   Clear
7:37 AM 33.3 °F 22.1 °F 27.9 °F 81% 30.00 in 10.0 mi South 18.4 mph 26.5 mph N/A   Clear
7:57 AM 33.3 °F 22.5 °F 27.9 °F 81% 30.00 in 10.0 mi South 17.3 mph 24.2 mph N/A   Clear
8:18 AM 33.8 °F 23.9 °F 27.9 °F 79% 29.99 in 10.0 mi South 15.0 mph 23.0 mph N/A   Clear
8:38 AM 34.2 °F 24.0 °F 27.9 °F 78% 29.98 in 10.0 mi South 16.1 mph 25.3 mph N/A   Clear
8:58 AM 34.9 °F 24.6 °F 28.0 °F 76% 29.97 in 10.0 mi South 17.3 mph 23.0 mph N/A   Clear
9:18 AM 36.7 °F 26.3 °F 28.2 °F 71% 29.96 in 10.0 mi South 19.6 mph 25.3 mph N/A   Clear
9:38 AM 38.3 °F 28.1 °F 28.6 °F 68% 29.96 in 10.0 mi South 20.7 mph 28.8 mph N/A   Clear
9:58 AM 39.6 °F 30.3 °F 28.8 °F 65% 29.95 in 10.0 mi South 18.4 mph 28.8 mph N/A   Clear
10:18 AM 41.4 °F 32.7 °F 29.3 °F 62% 29.94 in 10.0 mi South 18.4 mph 28.8 mph N/A   Clear
10:38 AM 43.5 °F 35.5 °F 29.8 °F 59% 29.94 in 10.0 mi South 18.4 mph 26.5 mph N/A   Clear
10:58 AM 45.7 °F 38.3 °F 30.2 °F 55% 29.93 in 10.0 mi South 18.4 mph 25.3 mph N/A   Clear
11:18 AM 47.7 °F - 30.4 °F 51% 29.92 in 10.0 mi South 18.4 mph 26.5 mph N/A   Clear
11:37 AM 50.5 °F - 29.8 °F 45% 29.91 in 10.0 mi South 17.3 mph 27.6 mph N/A   Clear
11:58 AM 50.7 °F - 29.5 °F 44% 29.90 in 10.0 mi South 13.8 mph 28.8 mph N/A   Clear
12:18 PM 51.1 °F - 29.7 °F 44% 29.89 in 10.0 mi South 16.1 mph 28.8 mph N/A   Clear
12:38 PM 52.2 °F - 30.0 °F 43% 29.87 in 10.0 mi South 20.7 mph 32.2 mph N/A   Clear
12:57 PM 54.0 °F - 30.4 °F 41% 29.86 in 10.0 mi South 20.7 mph 26.5 mph N/A   Clear
1:17 PM 54.0 °F - 31.1 °F 42% 29.85 in 10.0 mi South 18.4 mph 24.2 mph N/A   Clear
1:37 PM 54.5 °F - 30.9 °F 41% 29.84 in 10.0 mi South 19.6 mph 26.5 mph N/A   Clear
1:57 PM 55.0 °F - 31.3 °F 40% 29.84 in 10.0 mi South 15.0 mph 25.3 mph N/A   Clear
2:18 PM 55.8 °F - 31.1 °F 39% 29.82 in 10.0 mi South 18.4 mph 27.6 mph N/A   Clear
2:38 PM 55.2 °F - 30.7 °F 39% 29.82 in 10.0 mi South 18.4 mph 27.6 mph N/A   Clear
2:57 PM 55.0 °F - 31.1 °F 40% 29.81 in 10.0 mi South 17.3 mph 27.6 mph N/A   Clear
3:18 PM 54.7 °F - 31.6 °F 42% 29.81 in 10.0 mi South 18.4 mph 24.2 mph N/A   Clear
3:38 PM 54.9 °F - 32.0 °F 42% 29.79 in 10.0 mi South 20.7 mph 26.5 mph N/A   Clear
3:57 PM 54.5 °F - 31.8 °F 42% 29.79 in 10.0 mi South 17.3 mph 26.5 mph N/A   Clear
4:17 PM 53.6 °F - 32.4 °F 44% 29.79 in 10.0 mi South 17.3 mph 24.2 mph N/A   Clear
4:38 PM 52.7 °F - 33.3 °F 48% 29.77 in 10.0 mi South 16.1 mph 23.0 mph N/A   Clear
4:58 PM 52.7 °F - 33.3 °F 48% 29.77 in 10.0 mi South 17.3 mph 23.0 mph N/A   Clear
5:18 PM 52.7 °F - 32.9 °F 47% 29.77 in 10.0 mi South 18.4 mph 24.2 mph N/A   Clear
5:38 PM 52.2 °F - 32.9 °F 48% 29.77 in 10.0 mi South 16.1 mph 24.2 mph N/A   Clear
5:58 PM 51.8 °F - 32.9 °F 49% 29.76 in 10.0 mi South 20.7 mph 25.3 mph N/A   Clear
6:18 PM 51.4 °F - 32.0 °F 47% 29.76 in 10.0 mi South 20.7 mph 27.6 mph N/A   Clear
6:38 PM 50.9 °F - 32.0 °F 48% 29.76 in 10.0 mi South 21.9 mph 27.6 mph N/A   Clear
6:58 PM 50.4 °F - 31.6 °F 49% 29.76 in 10.0 mi South 20.7 mph 28.8 mph N/A   Clear
7:18 PM 50.2 °F - 31.1 °F 48% 29.76 in 10.0 mi South 21.9 mph 32.2 mph N/A   Clear
7:38 PM 49.8 °F - 30.9 °F 48% 29.76 in 10.0 mi South 20.7 mph 31.1 mph N/A   Clear
7:58 PM 49.5 °F - 30.2 °F 48% 29.76 in 10.0 mi South 23.0 mph 34.5 mph N/A   Clear
8:18 PM 49.1 °F - 30.2 °F 48% 29.77 in 10.0 mi South 19.6 mph 28.8 mph N/A   Clear
8:37 PM 49.1 °F - 29.8 °F 47% 29.77 in 10.0 mi South 20.7 mph 31.1 mph N/A   Clear
8:57 PM 48.6 °F - 30.0 °F 49% 29.77 in 10.0 mi South 18.4 mph 27.6 mph N/A   Clear
9:18 PM 47.8 °F - 30.2 °F 50% 29.77 in 10.0 mi South 20.7 mph 27.6 mph N/A   Clear
9:38 PM 47.8 °F - 30.2 °F 50% 29.76 in 10.0 mi South 18.4 mph 28.8 mph N/A   Clear
9:58 PM 48.0 °F - 30.4 °F 51% 29.75 in 10.0 mi South 23.0 mph 32.2 mph N/A   Clear
10:18 PM 49.1 °F - 30.2 °F 48% 29.75 in 10.0 mi South 23.0 mph 31.1 mph N/A   Clear
10:37 PM 49.1 °F - 30.2 °F 48% 29.75 in 10.0 mi South 20.7 mph 34.5 mph N/A   Clear
10:58 PM 48.7 °F - 30.2 °F 49% 29.75 in 10.0 mi South 24.2 mph 36.8 mph N/A   Clear
11:18 PM 48.7 °F - 30.0 °F 48% 29.75 in 10.0 mi South 24.2 mph 38.0 mph N/A   Clear
11:38 PM 48.6 °F - 30.2 °F 49% 29.76 in 10.0 mi South 20.7 mph 29.9 mph N/A   Clear
11:58 PM 48.6 °F - 30.2 °F 49% 29.76 in 10.0 mi South 21.9 mph 32.2 mph N/A   Clear